• In Kazakhstan
  • List of Countries
  • For 7 days
  • Water Temperature
  • Weather Map
  • News
  • Weather Widgets
  • user-avatar
    Login

    Hourly Weather Igls

    Today, 6 June, Saturday

    Time Temperature Precipitation Wind Pressure Humidity
    00:00 +11°C° 0 mm 1 mps 676 mmHg 94%
    01:00 +10°C° 0 mm 1 mps 676 mmHg 95%
    02:00 +10°C° 0 mm 1 mps 676 mmHg 95%
    03:00 +10°C° 0 mm 1 mps 676 mmHg 94%
    04:00 +9°C° 0 mm 2 mps 676 mmHg 94%
    05:00 +12°C° 0 mm 2 mps 676 mmHg 91%
    06:00 +13°C° 0 mm 1 mps 677 mmHg 88%
    07:00 +15°C° 0 mm 1 mps 677 mmHg 83%
    08:00 +17°C° 0.1 mm 2 mps 678 mmHg 78%
    09:00 +18°C° 0.1 mm 2 mps 678 mmHg 72%
    10:00 +20°C° 0.1 mm 2 mps 678 mmHg 66%
    11:00 +19°C° 0.6 mm 2 mps 678 mmHg 70%
    12:00 +19°C° 0.6 mm 2 mps 678 mmHg 74%
    13:00 +19°C° 0 mm 2 mps 678 mmHg 75%
    14:00 +18°C° 1 mm 2 mps 678 mmHg 79%
    15:00 +18°C° 1 mm 2 mps 678 mmHg 82%
    16:00 +17°C° 1 mm 2 mps 678 mmHg 86%
    17:00 +16°C° 1.7 mm 2 mps 678 mmHg 90%
    18:00 +16°C° 1.7 mm 1 mps 678 mmHg 93%
    19:00 +15°C° 1.7 mm 1 mps 678 mmHg 97%
    20:00 +14°C° 1.2 mm 1 mps 678 mmHg 97%
    21:00 +14°C° 1.2 mm 1 mps 678 mmHg 98%
    22:00 +14°C° 1.2 mm 1 mps 678 mmHg 98%
    23:00 +13°C° 0.2 mm 1 mps 678 mmHg 98%

    Tomorrow, 7 June, Sunday

    Time Temperature Precipitation Wind Pressure Humidity
    00:00 +13°C° 0.2 mm 1 mps 678 mmHg 98%
    01:00 +13°C° 0.2 mm 1 mps 678 mmHg 98%
    02:00 +13°C° 0.1 mm 1 mps 678 mmHg 98%
    03:00 +13°C° 0.1 mm 1 mps 677 mmHg 98%
    04:00 +13°C° 0.1 mm 1 mps 677 mmHg 98%
    05:00 +13°C° 0.1 mm 1 mps 677 mmHg 97%
    06:00 +14°C° 0.1 mm 1 mps 677 mmHg 96%
    07:00 +14°C° 0.1 mm 1 mps 677 mmHg 95%
    08:00 +14°C° 0.4 mm 1 mps 678 mmHg 94%
    09:00 +15°C° 0.4 mm 1 mps 678 mmHg 94%
    10:00 +15°C° 0.4 mm 2 mps 678 mmHg 94%
    11:00 +14°C° 1.2 mm 2 mps 678 mmHg 94%
    12:00 +14°C° 1.2 mm 2 mps 678 mmHg 95%
    13:00 +13°C° 1.2 mm 2 mps 678 mmHg 96%
    14:00 +12°C° 2.4 mm 2 mps 678 mmHg 96%
    15:00 +11°C° 2.4 mm 1 mps 679 mmHg 97%
    16:00 +11°C° 2.4 mm 1 mps 679 mmHg 98%
    17:00 +10°C° 2.1 mm 1 mps 679 mmHg 98%
    18:00 +10°C° 2.1 mm 1 mps 679 mmHg 97%
    19:00 +10°C° 2.1 mm 1 mps 679 mmHg 97%
    20:00 +9°C° 0.5 mm 1 mps 679 mmHg 97%
    21:00 +8°C° 0.5 mm 0 mps 680 mmHg 97%
    22:00 +8°C° 0.5 mm 0 mps 680 mmHg 97%
    23:00 +8°C° 0.2 mm 0 mps 680 mmHg 97%

    Day after tomorrow, 8 June, Monday

    Time Temperature Precipitation Wind Pressure Humidity
    00:00 +8°C° 0.2 mm 0 mps 679 mmHg 98%
    01:00 +8°C° 0.2 mm 0 mps 679 mmHg 98%
    02:00 +8°C° 0.1 mm 0 mps 679 mmHg 98%
    03:00 +8°C° 0.1 mm 0 mps 679 mmHg 98%
    04:00 +8°C° 0.1 mm 1 mps 679 mmHg 98%
    05:00 +9°C° 0.2 mm 1 mps 679 mmHg 98%
    06:00 +9°C° 0.2 mm 1 mps 679 mmHg 97%
    07:00 +10°C° 0.2 mm 1 mps 679 mmHg 97%
    08:00 +10°C° 0.1 mm 1 mps 679 mmHg 96%
    09:00 +11°C° 0.1 mm 1 mps 680 mmHg 95%
    10:00 +11°C° 0.1 mm 1 mps 680 mmHg 94%
    11:00 +12°C° 0 mm 1 mps 680 mmHg 93%
    12:00 +12°C° 0 mm 1 mps 680 mmHg 91%
    13:00 +13°C° 0 mm 1 mps 680 mmHg 89%
    14:00 +13°C° 0.2 mm 1 mps 680 mmHg 89%
    15:00 +13°C° 0.2 mm 1 mps 680 mmHg 88%
    16:00 +13°C° 0.2 mm 1 mps 680 mmHg 88%
    17:00 +13°C° 0.3 mm 1 mps 679 mmHg 90%
    18:00 +13°C° 0.3 mm 1 mps 679 mmHg 93%
    19:00 +12°C° 0.3 mm 1 mps 679 mmHg 95%
    20:00 +12°C° 0.1 mm 1 mps 679 mmHg 96%
    21:00 +12°C° 0.1 mm 1 mps 680 mmHg 97%
    22:00 +10°C° 0.1 mm 0 mps 680 mmHg 98%
    23:00 +10°C° 0.9 mm 0 mps 680 mmHg 98%

    9 June, Tuesday

    Time Temperature Precipitation Wind Pressure Humidity
    00:00 +10°C° 0.9 mm 0 mps 680 mmHg 99%
    01:00 +10°C° 0.9 mm 0 mps 680 mmHg 99%
    02:00 +10°C° 1 mm 0 mps 680 mmHg 99%
    03:00 +10°C° 1 mm 0 mps 680 mmHg 99%
    04:00 +10°C° 1 mm 0 mps 679 mmHg 99%
    05:00 +10°C° 0.5 mm 0 mps 680 mmHg 98%
    06:00 +11°C° 0.5 mm 0 mps 680 mmHg 98%
    07:00 +11°C° 0.5 mm 0 mps 680 mmHg 98%
    08:00 +11°C° 0.3 mm 0 mps 680 mmHg 97%
    09:00 +12°C° 0.3 mm 0 mps 681 mmHg 96%
    10:00 +12°C° 0.3 mm 0 mps 681 mmHg 95%
    11:00 +13°C° 0.6 mm 1 mps 681 mmHg 95%
    12:00 +13°C° 0.6 mm 1 mps 681 mmHg 95%
    13:00 +14°C° 0.6 mm 1 mps 681 mmHg 96%
    14:00 +13°C° 1.1 mm 1 mps 681 mmHg 96%
    15:00 +13°C° 1.1 mm 1 mps 681 mmHg 96%
    16:00 +13°C° 1.1 mm 1 mps 681 mmHg 95%
    17:00 +13°C° 0.2 mm 1 mps 681 mmHg 96%
    18:00 +13°C° 0.2 mm 1 mps 681 mmHg 97%
    19:00 +13°C° 0.2 mm 1 mps 681 mmHg 97%
    20:00 +12°C° 0 mm 0 mps 681 mmHg 97%
    21:00 +11°C° 0 mm 0 mps 681 mmHg 98%
    22:00 +11°C° 0 mm 0 mps 682 mmHg 98%
    23:00 +11°C° 0 mm 0 mps 681 mmHg 98%

    10 June, Wednesday

    Time Temperature Precipitation Wind Pressure Humidity
    00:00 +10°C° 0 mm 0 mps 681 mmHg 98%
    01:00 +10°C° 0 mm 0 mps 681 mmHg 98%
    02:00 +10°C° 0 mm 0 mps 681 mmHg 97%
    03:00 +10°C° 0 mm 0 mps 681 mmHg 97%
    04:00 +10°C° 0 mm 0 mps 681 mmHg 97%
    05:00 +11°C° 0 mm 0 mps 681 mmHg 95%
    06:00 +11°C° 0 mm 0 mps 681 mmHg 94%
    07:00 +12°C° 0 mm 0 mps 681 mmHg 93%
    08:00 +14°C° 0.2 mm 1 mps 681 mmHg 90%
    09:00 +15°C° 0.2 mm 1 mps 681 mmHg 87%
    10:00 +16°C° 0.2 mm 1 mps 681 mmHg 84%
    11:00 +16°C° 0.7 mm 1 mps 681 mmHg 85%
    12:00 +16°C° 0.7 mm 2 mps 681 mmHg 85%
    13:00 +17°C° 0.7 mm 2 mps 681 mmHg 86%
    14:00 +16°C° 1 mm 2 mps 681 mmHg 89%
    15:00 +15°C° 1 mm 2 mps 680 mmHg 92%
    16:00 +15°C° 1 mm 1 mps 680 mmHg 95%
    17:00 +14°C° 1.5 mm 1 mps 680 mmHg 96%
    18:00 +14°C° 1.5 mm 1 mps 680 mmHg 97%
    19:00 +13°C° 1.5 mm 1 mps 680 mmHg 98%
    20:00 +13°C° 1 mm 1 mps 680 mmHg 98%
    21:00 +12°C° 1 mm 1 mps 680 mmHg 98%
    22:00 +11°C° 1 mm 0 mps 680 mmHg 98%
    23:00 +11°C° 0.4 mm 0 mps 680 mmHg 98%

    11 June, Thursday

    Time Temperature Precipitation Wind Pressure Humidity
    00:00 +11°C° 0.4 mm 0 mps 680 mmHg 98%
    01:00 +12°C° 0.4 mm 1 mps 679 mmHg 98%
    02:00 +12°C° 0.2 mm 1 mps 679 mmHg 98%
    03:00 +12°C° 0.2 mm 1 mps 679 mmHg 98%
    04:00 +12°C° 0.2 mm 1 mps 679 mmHg 98%
    05:00 +12°C° 0.1 mm 1 mps 679 mmHg 97%
    06:00 +12°C° 0.1 mm 1 mps 679 mmHg 96%
    07:00 +13°C° 0.1 mm 1 mps 679 mmHg 95%
    08:00 +14°C° 0.2 mm 1 mps 679 mmHg 89%
    09:00 +15°C° 0.2 mm 1 mps 680 mmHg 84%
    10:00 +16°C° 0.2 mm 1 mps 680 mmHg 78%
    11:00 +18°C° 0.3 mm 1 mps 680 mmHg 76%
    12:00 +19°C° 0.3 mm 1 mps 679 mmHg 74%
    13:00 +18°C° 0.3 mm 2 mps 679 mmHg 72%
    14:00 +19°C° 0.3 mm 1 mps 679 mmHg 71%
    15:00 +20°C° 0.3 mm 1 mps 678 mmHg 69%
    16:00 +20°C° 0.3 mm 1 mps 678 mmHg 68%
    17:00 +19°C° 0.4 mm 1 mps 678 mmHg 73%
    18:00 +18°C° 0.4 mm 1 mps 678 mmHg 78%
    19:00 +18°C° 0.4 mm 1 mps 678 mmHg 83%
    20:00 +15°C° 0 mm 1 mps 678 mmHg 86%
    21:00 +14°C° 0 mm 1 mps 678 mmHg 90%
    22:00 +12°C° 0 mm 1 mps 678 mmHg 94%
    23:00 +12°C° 0 mm 1 mps 678 mmHg 94%
    Show more